Location: Durham
(54.7770°N, 1.5720°W)
Time: 10:44:06
(UTC+01:00)

ISS - Visible Passes

Search period start: 03 June 2015 00:00
Search period end: 13 June 2015 00:00
Orbit: 398 x 404 km, 51.6° (Epoch: 02 June)

Date Brightness Start Highest point End Pass type
(mag) Time Alt. Az. Time Alt. Az. Time Alt. Az.
03 Jun -3.1 01:25:16 10° W 01:28:23 43° S 01:31:30 10° ESE visible
03 Jun -2.0 03:01:51 10° WSW 03:04:19 20° SSW 03:06:46 10° SSE visible
03 Jun -2.8 22:56:04 10° SW 22:59:04 35° SSE 23:02:06 10° E visible
04 Jun -3.2 00:32:01 10° WSW 00:35:11 48° S 00:38:20 10° ESE visible
04 Jun -2.4 02:08:24 10° W 02:11:13 27° SSW 02:14:01 10° SE visible
04 Jun -3.1 23:38:48 10° WSW 23:41:57 48° S 23:45:07 10° ESE visible
05 Jun -2.7 01:15:03 10° W 01:18:03 34° SSW 01:20:46 12° SE visible
05 Jun -1.3 02:52:18 10° WSW 02:53:12 12° SW 02:53:12 12° SW visible
05 Jun -3.0 22:45:36 10° WSW 22:48:43 44° S 22:51:51 10° E visible
06 Jun -3.0 00:21:45 10° W 00:24:51 42° SSW 00:27:55 10° ESE visible
06 Jun -1.7 01:58:25 10° WSW 02:00:26 18° SW 02:00:26 18° SW visible
06 Jun -3.1 23:28:28 10° W 23:31:37 47° S 23:34:46 10° ESE visible
07 Jun -2.2 01:04:53 10° W 01:07:38 25° SSW 01:08:14 23° S visible
07 Jun -3.1 22:35:13 10° WSW 22:38:22 48° S 22:41:32 10° ESE visible
08 Jun -2.6 00:11:29 10° W 00:14:27 32° SSW 00:16:15 19° SE visible
08 Jun -2.8 23:18:09 10° W 23:21:14 40° SSW 23:24:18 10° ESE visible
09 Jun -1.6 00:54:55 10° WSW 00:56:56 17° SW 00:56:56 17° SW visible
10 Jun -2.0 00:01:18 10° W 00:03:58 23° SSW 00:05:10 19° S visible
10 Jun -2.4 23:07:50 10° W 23:10:46 31° SSW 23:13:26 11° SE visible
11 Jun -0.9 00:45:55 10° SW 00:45:59 10° SW 00:45:59 10° SW visible
11 Jun -1.4 23:51:20 10° WSW 23:53:22 15° SSW 23:54:18 14° SSW visible
12 Jun -1.8 22:57:37 10° W 23:00:12 22° SSW 23:02:39 11° SSE visible
